Weather in Laish

Uzbekistan     39°52′45″N   66°45′07″E
temp.,
°C
wind,
m/s
gust,
m/s
humid.,
%
clouds,
%
prec.,
mm/h
press.,
hPa
HPBL,
m
17 may, tue
tue1723:00+20e333557 0.0 100916
02:00+19ene33397 0.0 100814
05:00+18ene33420 0.0 100816
08:00+23e22380 0.0 1009214
11:00+29s11245 0.0 10081614
14:00+30w2317100 0.0 10072717
17:00+30wnw3417100 0.0 10062706
20:00+25n332281 0.0 100619
18 may, wed
wed1823:00+22ne443044 0.0 100847
02:00+21ne332858 0.0 100819
05:00+21nw2228100 0.0 101011
08:00+24se2229100 0.0 1011230
11:00+28se2224100 0.0 10111419
14:00+30ene122131 0.0 10102730
17:00+30nw33205 0.0 10102563
20:00+23ne49410 0.0 1011175
19 may, thu
thu1923:00+21ne49385 0.0 1012178
02:00+20nne49380 0.0 1011185
05:00+21ne714370 0.0 1011402
08:00+23ne811376 0.0 1012656
11:00+27ne8931100 0.0 10111359
14:00+29ne882773 0.0 10091726
17:00+28ene9103046 0.0 10081972
20:00+23ene484416 0.0 1009149
20 may, fri
fri2023:00+23ne9163899 0.0 1008577
02:00+22ne71337100 0.0 1008430
05:00+18ne484992 0.1 1008158
08:00+22ne453793 0.3 1009272
11:00+28ne12285 0.3 10071135
14:00+30wsw34245 0.0 10062722
17:00+30nnw242382 0.0 10053027
20:00+20e596096 0.9 1008209
21 may, sat
sat2123:00+19ne22655 1.3 100932
02:00+19ese33610 0.0 100923
05:00+18ese22630 0.0 100913
08:00+22se22440 0.0 1010283
11:00+28w89225 0.0 10092873
14:00+24wnw111044100 0.0 10111681
17:00+18w101260100 0.1 10161403
20:00+15wsw4959100 0.3 10201436